Theta_e
321 321 324 334 346 347 347 357 360 356 351 352 352 350 352 353 355 358 358 352 353 347 347 346 348 349 342 342 340 338 336 336
320 322 323 325 337 348 350 353 359 364 353 350 353 349 352 349 349 357 357 352 356 353 343 346 348 340 341 341 336 344 343 340
320 323 325 326 329 344 350 354 361 363 365 354 355 352 351 350 349 354 354 351 355 350 349 345 343 340 341 342 342 344 342 342
317 319 323 326 328 336 346 351 363 363 361 364 360 361 354 353 350 351 357 355 357 348 349 344 343 342 341 343 344 341 341 344
318 320 323 326 328 332 339 353 360 366 366 365 359 355 354 352 350 357 358 361 361 354 347 345 344 347 357 351 349 344 341 344
318 320 322 325 327 331 341 344 356 367 365 362 358 358 356 355 352 352 357 357 359 357 346 347 347 347 344 344 343 338 338 341
319 319 322 324 327 331 334 353 352 362 365 363 361 363 358 356 356 352 355 353 353 353 349 349 355 346 343 343 342 343 341 344
318 319 321 323 327 337 338 341 360 366 361 363 359 358 359 358 356 354 357 353 353 352 349 346 351 345 344 344 347 344 341 340
318 319 321 322 327 332 341 344 346 359 356 354 355 352 356 357 357 360 359 358 357 354 351 351 352 347 346 351 346 348 341 347
316 318 320 322 328 334 335 337 348 354 357 357 357 356 357 357 358 359 360 360 359 357 356 350 353 348 352 353 350 342 340 345
315 316 319 320 322 331 332 341 343 348 359 357 359 359 357 353 354 356 356 357 357 358 357 356 356 353 348 355 356 350 341 343
315 316 318 321 322 325 331 336 342 342 349 353 355 350 349 352 353 353 356 358 356 357 358 358 358 356 353 356 355 353 350 342
315 316 318 320 322 324 330 336 338 342 347 353 351 353 351 351 353 355 357 357 357 355 357 359 358 355 356 356 355 353 349 343
316 317 319 319 321 322 324 331 336 340 342 345 352 351 352 348 351 349 351 352 356 356 355 357 358 355 355 354 355 355 350 349
314 315 316 317 319 321 323 324 329 333 338 342 348 351 354 351 351 349 349 350 351 353 356 356 353 357 357 357 355 353 350 344
313 314 316 317 319 321 322 323 326 329 332 339 347 350 351 353 352 348 349 346 351 358 356 358 356 355 353 352 348 348 347 341
312 313 315 316 317 320 321 323 323 328 329 336 346 348 348 348 353 350 350 350 342 353 355 357 355 353 354 354 348 348 348 348
312 313 314 316 317 318 320 322 323 325 329 330 334 342 347 349 351 343 343 345 349 350 354 355 354 355 354 355 349 348 346 343
311 312 314 315 316 316 318 319 321 322 325 328 332 335 340 342 338 334 340 346 347 346 346 347 348 350 353 351 351 348 347 346
311 311 313 313 314 314 315 317 318 321 322 325 328 331 334 337 336 330 337 338 340 336 338 337 338 339 345 343 343 343 342 342
Wind_Speed
10 9 12 11 14 9 11 14 11 14 13 11 8 9 9 10 15 13 12 10 9 9 8 8 8 10 8 10 9 8 10 9
15 14 11 11 12 14 11 12 13 11 10 10 11 11 11 10 13 13 10 8 8 7 8 10 8 9 9 9 8 8 10 8
15 15 13 9 14 12 13 12 14 12 12 10 10 11 11 12 12 13 11 11 9 9 8 8 10 10 10 8 7 6 7 9
13 13 13 11 12 12 13 15 11 14 12 13 9 8 11 10 9 11 15 11 9 10 9 10 9 10 9 9 7 6 7 9
14 12 13 8 7 11 12 13 12 14 14 12 10 12 12 11 11 12 16 12 11 12 9 10 10 8 6 5 6 6 7 7
14 12 9 9 10 9 12 12 14 15 15 11 11 10 10 8 10 10 15 14 11 11 10 10 9 8 8 8 9 9 9 9
10 11 12 10 8 8 10 11 15 12 13 12 13 14 12 11 10 11 14 14 16 10 11 9 9 9 8 9 7 8 8 8
12 11 10 11 8 7 8 10 10 14 12 11 10 11 10 11 12 13 16 14 16 12 11 8 12 11 10 10 9 9 8 8
12 12 11 14 10 8 7 8 11 10 12 13 13 13 13 13 11 14 16 16 17 16 13 12 12 11 12 12 10 8 8 7
14 13 13 13 11 10 9 9 10 12 10 9 10 12 11 11 12 14 15 15 15 14 14 13 14 11 12 11 13 10 10 8
16 16 15 13 11 12 12 10 9 12 15 12 11 11 10 9 10 11 13 15 15 15 17 14 12 12 11 12 11 12 9 9
14 14 13 13 15 14 14 12 13 11 14 15 17 14 14 14 13 13 13 15 14 15 14 14 11 10 12 8 9 10 9 8
15 14 14 13 14 13 12 13 13 13 12 16 15 16 15 12 11 15 16 16 17 16 16 14 14 11 10 10 10 11 9 9
12 11 8 10 13 13 14 14 14 14 13 15 18 20 17 14 15 14 13 12 14 17 17 14 13 12 12 12 12 13 9 6
13 12 14 11 14 13 13 15 17 16 15 15 18 20 19 18 14 13 14 13 12 14 17 15 13 13 12 12 12 11 12 12
13 13 13 15 15 15 16 14 15 18 17 15 16 19 14 14 15 13 15 9 14 17 16 14 14 15 14 11 9 9 12 9
14 15 14 12 14 15 14 16 17 15 17 16 14 14 17 16 18 19 12 16 13 22 20 16 16 14 14 14 12 14 12 12
11 13 13 13 13 14 14 13 13 16 14 16 15 13 15 17 18 19 22 20 11 15 23 19 16 16 15 15 13 14 13 11
13 13 14 14 16 13 13 14 14 13 15 14 14 14 12 13 10 15 15 6 8 12 6 12 15 14 13 13 13 12 15 13
14 15 15 16 15 14 13 15 12 13 11 12 13 13 12 12 7 14 23 9 12 12 14 15 14 14 12 13 14 14 14 11
Wind_Direction
267 257 286 259 190 209 209 163 192 199 213 170 189 197 198 200 210 200 207 197 203 194 167 179 192 194 213 200 203 229 225 239
256 250 243 257 242 192 206 190 188 207 211 192 188 204 191 201 200 203 203 212 201 197 210 191 191 191 217 209 214 222 222 246
262 257 260 252 272 202 205 210 183 200 224 208 205 204 195 202 195 193 213 201 195 198 205 215 184 207 184 228 229 201 228 246
250 258 262 269 258 250 215 205 207 189 211 236 193 209 204 201 206 192 205 205 194 196 211 211 205 207 205 196 208 223 225 251
267 264 245 234 260 279 271 213 209 192 201 214 229 217 220 199 207 195 187 213 197 208 199 210 210 210 221 195 206 195 248 254
265 270 262 286 283 283 220 249 208 197 201 205 221 220 211 220 202 196 188 198 220 194 207 202 223 203 199 208 205 209 219 228
248 256 269 269 287 278 270 223 220 225 204 202 209 224 216 213 202 214 186 194 199 215 214 202 209 221 201 212 216 217 209 237
254 252 248 262 267 280 259 265 241 201 215 208 213 225 218 217 213 200 194 193 195 205 219 209 189 211 208 212 217 218 217 230
261 249 263 268 267 279 251 244 256 234 210 213 211 214 218 210 223 217 200 188 196 201 211 205 199 204 222 194 201 225 214 221
275 271 266 259 269 277 279 270 256 234 225 215 216 221 218 214 206 216 212 199 197 198 212 210 199 206 216 225 196 198 213 224
284 283 278 284 279 295 283 287 274 261 228 226 217 223 218 214 218 209 204 206 200 203 207 220 200 201 209 205 204 211 206 201
306 294 307 329 330 323 317 309 296 271 249 236 229 217 217 216 209 214 204 203 209 211 218 210 217 200 206 201 203 208 234 221
346 335 325 323 310 308 303 290 275 273 272 260 235 225 224 227 209 210 205 190 200 213 207 214 205 219 201 210 192 196 201 231
315 310 306 318 322 325 325 310 292 280 260 256 242 247 227 233 214 209 204 203 191 200 206 204 202 203 210 203 191 196 214 180
307 311 315 319 305 317 316 326 314 290 264 252 251 233 237 225 238 229 204 193 190 192 196 192 198 198 194 195 188 184 190 189
319 317 320 318 318 317 311 327 323 309 284 254 241 240 231 232 225 225 234 205 181 172 189 189 195 193 194 186 194 201 202 211
310 311 312 309 319 314 318 324 321 316 292 276 252 242 241 233 233 225 238 203 210 147 178 182 194 194 188 189 208 203 221 213
305 308 303 309 302 305 315 314 321 317 305 288 271 235 240 240 236 226 223 195 196 159 172 170 191 198 201 198 205 212 200 210
309 304 307 302 302 305 313 317 317 320 323 306 283 280 247 240 258 264 252 91 132 187 176 170 192 201 204 201 224 220 215 217
305 304 307 301 301 306 312 310 311 319 325 330 309 309 279 267 185 154 258 189 182 190 183 189 195 199 204 210 216 230 220 214